Location: Donzy-le-Pr�
(47.3659°N, 3.1107°E)
Time: 07:54:06
(UTC+00:00)

Cosmos 2333 Rocket - Pass Details

Date: 03 March 2021
Orbit: 837 x 864 km, 70.8° (Epoch: 14 April)

Event Time Altitude Azimuth Distance (km) Brightness Sun altitude
Rises 20:30:29 0° 222° (SW) 3,391 5.5 -29.7°
Reaches altitude 10° 20:32:59 10° 227° (SW) 2,464 4.8 -30.1°
Maximum altitude 20:38:30 52° 303° (WNW) 1,051 2.9 -30.9°
Drops below altitude 10° 20:44:06 10° 20° (NNE) 2,497 4.7 -31.8°
Sets 20:46:39 0° 25° (NNE) 3,441 5.4 -32.1°
